Find Starlink 4290

NORAD ID: 53006 Int'l Des: 2022-076 Owner: SPXS Country: US Constellation: starlink operational
LEOCIRCULAR

現在のビュー

3D地球を読み込み中...

About Starlink 4290

Starlink 4290 (NORAD 53006) is a starlink constellation satellite (v1.5) launched Jul 7, 2022 by SPXS of US. It operates in LEO, CIRCULAR orbit with a mass of 297.00 kg.

Starlink 4290について

説明を読み込み中...

次回通過

Passes for default location (London). Set your location on the main map for personalized predictions.

高度履歴

Loading altitude history...

軌道要素

1 53006U 22076W 26173.83335648 .00063051 00000-0 35306-2 0 9994
2 53006 53.1585 341.9217 0003334 95.5066 170.3946 15.12853046 5789
Epoch: Jun 22, 2026 • Age: 13 hours

現在のステータス

高度 538.8 km
速度 7.59 km/s
衛星直下点 -31.63°S, 93.18°W
打ち上げ日 Jul 7, 2022
運用期間 3.9 years
タイプ internet

技術仕様

分類 Payload
質量 297.00 kg
乾燥質量 275.00 kg
総質量 297.00 kg
長さ 0.20 m
直径 2.80 m
スパン 9.00 m
形状 Box + pan
製造者 SPXS
バスタイプ Starlink
フェーズステータス In Orbit
所有者/国 SPXS/US

Most Searched